Saint Simons Island, GA

6:29 AM EDT on August 24, 2017 (GMT -0400)
McKinnon

Weather History for KSSI - November, 2012

Change the Weather History Date:

Saturday, November 17, 2012

  Actual Average Record
Temperature  
Mean Temperature 55 °F 61 °F  
Max Temperature 58 °F 70 °F 83 °F (1964)
Min Temperature 52 °F 53 °F 32 °F (1970)
Degree Days  
Heating Degree Days 10 5  
Month to date heating degree days 97 64  
Since 1 July heating degree days 126 94  
Cooling Degree Days 0 2  
Month to date cooling degree days 21 39  
Year to date cooling degree days 2908 2600  
Growing Degree Days 4 (Base 50)    
Moisture  
Dew Point 47 °F    
Average Humidity 75    
Maximum Humidity 83    
Minimum Humidity 67    
Precipitation  
Precipitation 0.00 in 0.07 in 1.16 in (1976)
Month to date precipitation 0.21 1.23  
Year to date precipitation 39.34 41.56  
Snow  
Snow 0.00 in - 0.00 in ()
Month to date snowfall 0.0  
Since 1 July snowfall 0.0  
Since 1 September snowfall 0.0  
Snow Depth 0.00 in    
Sea Level Pressure  
Sea Level Pressure 30.26 in    
Wind  
Wind Speed 12 mph (NNE)    
Max Wind Speed 20 mph    
Max Gust Speed 25 mph    
Visibility 10 miles    
Events      
T = Trace of Precipitation, MM = Missing Value Source: NWS Daily Summary

Daily Weather History Graph

Daily Weather History Graph

Search for Another Location

Airport or City:

Trip Planner

Search our weather history database for the weather conditions in past years. The results will help you decide how hot, cold, wet, or windy it might be!

Date:

Astronomy

Nov. 17, 2012 Rise Set
Actual Time 6:54 AM EST 5:26 PM EST
Civil Twilight 6:29 AM EST 5:51 PM EST
Nautical Twilight 5:59 AM EST 6:21 PM EST
Astronomical Twilight 5:30 AM EST 6:50 PM EST
Moon 10:38 AM EST (11/17) 9:33 PM EST (11/17)
Length of Visible Light 11h 22m
Length of Day
10h 31m
Waxing Crescent, 20% of the Moon is Illuminated
Nov 17
Waxing Crescent
Nov 20
First Quarter
Nov 28
Full
Dec 6
Last Quarter
Dec 13
New

Hourly Weather History & Observations

Time (EST) Temp. Dew Point Humidity Pressure Visibility Wind Dir Wind Speed Gust Speed Precip Events Conditions
12:53 AM 55.0 °F 48.0 °F 77% 30.23 in 10.0 mi NNE 9.2 mph - N/A   Scattered Clouds
1:53 AM 55.0 °F 48.9 °F 80% 30.23 in 10.0 mi North 10.4 mph - N/A   Overcast
2:21 AM 55.4 °F 48.2 °F 77% 30.22 in 10.0 mi North 10.4 mph - N/A   Mostly Cloudy
2:53 AM 57.0 °F 50.0 °F 77% 30.22 in 10.0 mi NNE 12.7 mph - N/A   Overcast
3:53 AM 57.0 °F 50.0 °F 77% 30.22 in 10.0 mi NNE 12.7 mph - N/A   Overcast
4:19 AM 57.2 °F 50.0 °F 77% 30.21 in 10.0 mi NNE 15.0 mph - N/A   Overcast
4:53 AM 55.9 °F 48.9 °F 77% 30.21 in 10.0 mi NNE 15.0 mph 21.9 mph N/A   Scattered Clouds
5:53 AM 55.0 °F 48.0 °F 77% 30.23 in 10.0 mi North 10.4 mph 19.6 mph N/A   Overcast
6:53 AM 54.0 °F 46.9 °F 77% 30.24 in 10.0 mi North 12.7 mph - N/A   Overcast
7:53 AM 53.1 °F 46.0 °F 77% 30.27 in 10.0 mi NNE 13.8 mph 18.4 mph N/A   Overcast
8:53 AM 54.0 °F 46.9 °F 77% 30.27 in 10.0 mi North 13.8 mph - N/A   Overcast
9:53 AM 54.0 °F 46.0 °F 75% 30.29 in 10.0 mi North 12.7 mph 20.7 mph N/A   Overcast
10:53 AM 54.0 °F 46.0 °F 75% 30.29 in 10.0 mi North 11.5 mph - N/A   Overcast
11:18 AM 53.6 °F 46.4 °F 77% 30.28 in 10.0 mi North 12.7 mph - N/A   Overcast
11:53 AM 54.0 °F 45.0 °F 72% 30.28 in 10.0 mi North 11.5 mph 20.7 mph N/A   Overcast
12:53 PM 55.0 °F 46.0 °F 72% 30.27 in 10.0 mi North 12.7 mph - N/A   Overcast
1:02 PM 55.4 °F 46.4 °F 72% 30.26 in 10.0 mi North 12.7 mph 18.4 mph N/A   Overcast
1:53 PM 55.9 °F 46.9 °F 72% 30.25 in 10.0 mi NNE 13.8 mph 20.7 mph N/A   Overcast
2:46 PM 55.4 °F 46.4 °F 72% 30.25 in 10.0 mi NNE 17.3 mph 21.9 mph N/A   Overcast
2:53 PM 55.0 °F 46.9 °F 74% 30.25 in 10.0 mi NNE 15.0 mph - N/A   Overcast
3:11 PM 55.4 °F 46.4 °F 72% 30.25 in 10.0 mi NNE 16.1 mph 21.9 mph N/A   Overcast
3:53 PM 55.9 °F 48.0 °F 75% 30.25 in 10.0 mi North 13.8 mph 18.4 mph N/A   Overcast
4:53 PM 57.0 °F 46.0 °F 67% 30.26 in 10.0 mi NNE 10.4 mph - N/A   Mostly Cloudy
5:13 PM 55.4 °F 46.4 °F 72% 30.27 in 10.0 mi NNE 11.5 mph - N/A   Mostly Cloudy
5:53 PM 57.0 °F 46.0 °F 67% 30.27 in 10.0 mi NNE 16.1 mph 23.0 mph N/A   Overcast
6:53 PM 55.9 °F 46.0 °F 69% 30.28 in 10.0 mi NNE 12.7 mph 21.9 mph N/A   Overcast
7:53 PM 55.9 °F 46.0 °F 69% 30.28 in 10.0 mi North 12.7 mph 18.4 mph N/A   Overcast
8:53 PM 54.0 °F 46.0 °F 75% 30.28 in 10.0 mi North 8.1 mph - N/A   Overcast
9:53 PM 53.1 °F 46.0 °F 77% 30.28 in 10.0 mi North 8.1 mph - N/A   Overcast
10:53 PM 52.0 °F 46.0 °F 80% 30.27 in 10.0 mi North 6.9 mph - N/A   Overcast
11:53 PM 55.0 °F 46.9 °F 74% 30.25 in 10.0 mi NNE 13.8 mph 20.7 mph N/A   Overcast